Location: Myra
(43.4160°N, 88.0960°W)
Time: 11:51:11
(UTC-06:00)

Daily predictions for brighter satellites

Satellite Brightness Start Highest point End
(mag) Time Altitude Azimuth Time Altitude Azimuth Time Altitude Azimuth
YAOGAN 1 3.2 16:42:46 10° SE 16:46:41 34° ENE 16:50:38 10° N
Cosmos 2278 Rocket 3.0 16:44:24 10° SSE 16:49:20 32° ESE 16:54:18 10° NE
Tiangong 1 3.5 16:48:29 10° S 16:49:49 12° SSE 16:51:09 10° ESE
Cosmos 1378 Rocket 4.2 16:47:16 10° SSW 16:51:30 60° W 16:55:47 10° N
Meteor 2-19 Rocket 4.5 16:48:18 10° N 16:54:17 59° ENE 17:00:14 10° SSE
COSMOS 2406 3.9 16:53:26 10° NNW 16:59:05 61° WSW 17:04:43 10° S
MSX 4.2 16:57:00 10° SE 17:02:22 43° ENE 17:07:45 10° N
SL-8 Rocket 3.9 16:57:45 10° N 17:03:57 77° E 17:10:06 10° SSE
CZ-4 R/B 1.4 17:00:25 10° SSE 17:04:34 76° ENE 17:08:44 10° N
Genesis I 4.0 17:01:13 10° NNW 17:04:44 30° NE 17:08:14 10° ESE
Cosmos 1455 Rocket 3.3 17:00:39 10° N 17:04:57 49° ENE 17:09:14 10° SSE
AQUARIUS 4.2 17:01:18 10° SSE 17:05:43 61° ENE 17:10:10 10° N
Cosmos 1975 3.5 17:03:46 10° N 17:07:29 33° ENE 17:11:09 10° SE
Meteor 1-5 Rocket 4.4 17:03:45 10° NNW 17:09:10 75° W 17:14:45 10° S
Meteor 1-12 Rocket 4.4 17:05:23 10° N 17:11:04 56° ENE 17:16:50 10° SSE
Cosmos 1833 Rocket 3.7 17:07:55 10° N 17:12:33 25° NE 17:17:07 10° ESE
Cosmos 2082 Rocket 3.0 17:08:18 10° N 17:13:11 29° NE 17:18:04 10° ESE
PAYLOAD A 4.2 17:08:35 10° S 17:13:23 74° WSW 17:18:25 10° NNW
SJ-12 3.8 17:09:34 10° SSE 17:13:40 81° ENE 17:17:48 10° N
Cosmos 2366 rocket 4.0 17:09:25 10° N 17:15:48 70° E 17:22:04 10° SSE
MOS 1 4.3 17:10:16 10° SSE 17:15:56 84° ENE 17:21:37 10° NNW
Cosmos 1743 4.2 17:15:13 10° NNE 17:17:52 17° ENE 17:20:30 10° ESE
Cosmos 1959 Rocket 4.5 17:12:11 10° N 17:18:24 83° E 17:24:39 10° S
Cosmos 1484 Rocket 3.4 17:17:52 10° SE 17:21:13 32° ENE 17:24:34 10° N
Cosmos 2218 Rocket 4.0 17:15:35 10° N 17:21:55 88° E 17:28:08 10° S
ISS -2.2 17:19:46 10° W 17:22:51 36° NNW 17:25:01 17° NE
Cosmos 1500 3.6 17:21:32 10° N 17:25:11 40° ENE 17:28:49 10° SSE
USA 234 3.3 17:19:23 11° NE 17:25:41 81° NW 17:32:13 10° WSW
Abrixas 3.1 17:25:12 10° WNW 17:28:01 38° NNE 17:29:12 25° ENE
BREEZE M DEB (TANK) 3.3 17:29:30 10° WNW 17:32:31 45° NNE 17:37:40 17° E
SPOT 3 Rocket 3.9 17:30:01 10° S 17:35:10 69° WSW 17:40:21 10° NNW
GEOS 3 Rocket 4.0 17:30:25 10° ESE 17:35:11 41° NE 17:39:58 10° NNW
NOSS 3-4 (A) 4.5 17:29:09 10° NNW 17:35:17 32° NE 17:39:37 18° E
NOSS 3-4 (C) 4.5 17:29:15 10° NNW 17:35:23 32° NE 17:39:40 18° E
Timation 2 Rocket 4.3 17:32:03 10° NNW 17:38:44 54° ENE 17:45:28 10° SE
COSMOS 2487 2.6 17:36:15 10° N 17:39:46 49° ENE 17:43:16 10° SE
CZ-3B DEB 2.3 17:36:47 10° SW 17:40:34 81° NW 17:47:51 17° NE
SMAP 3.7 17:36:31 10° S 17:41:06 59° W 17:45:43 10° NNW
SL-24 DEB 4.2 17:37:15 10° N 17:42:00 71° E 17:46:41 10° S
NOSS 3-3 (A) 4.0 17:37:00 10° SSW 17:43:10 79° SE 17:48:34 17° NE
NOSS 3-3 (C) 4.0 17:37:06 10° SSW 17:43:17 79° ESE 17:48:38 17° NE
Meteor 2-4 Rocket 4.4 17:43:32 10° SE 17:47:58 27° E 17:48:44 26° ENE
Meteor 2-21 4.4 17:43:25 10° N 17:49:36 71° E 17:55:43 10° SSE
Cosmos 1821 Rocket 4.3 17:44:29 10° N 17:50:13 40° ENE 17:55:54 10° SE
ATLAS 2AS CENTAUR R/B 3.7 17:43:00 10° NW 17:50:51 57° WSW 17:58:08 10° SSE
Cosmos 1812 3.7 17:50:58 10° SSW 17:54:41 47° WNW 17:58:26 10° N
Cosmos 1238 Rocket 3.9 17:52:46 10° SW 17:55:27 31° WNW 17:58:16 10° NNW
COSMO-SKYMED 1 2.5 17:52:19 15° NNE 17:55:52 67° E 18:00:10 10° S
Cosmos 1844 Rocket 4.1 17:52:11 10° WSW 17:57:17 35° NW 18:02:28 10° N
IDEFIX/ARIANE 42P 3.7 17:53:07 10° S 17:58:05 45° W 18:03:03 10° NNW
SL-8 R/B 3.6 17:53:55 10° WSW 17:58:42 84° NNW 18:00:40 36° ENE
Okean 1 3.8 17:55:06 10° SSW 17:59:06 62° W 18:03:09 10° N
CZ-2C R/B 3.9 17:56:36 10° SSW 18:01:16 39° W 18:06:05 10° NNW
Meteor 2-14 Rocket 4.3 18:04:27 10° N 18:10:38 77° E 18:16:46 10° SSE
Cosmos 1346 Rocket 3.1 18:08:35 10° SSW 18:12:27 65° W 18:14:56 21° N
Nadezhda 3 Rocket 3.9 18:09:04 10° S 18:15:16 90° S 18:21:35 10° N
Cosmos 2297 3.6 18:14:23 10° SSW 18:20:02 84° ESE 18:22:45 32° NNE
Cosmos 1025 Rocket 3.4 18:18:37 10° S 18:21:57 46° SE 18:21:57 46° SE
Intercosmos 25 3.3 18:22:01 10° NNW 18:25:25 59° WSW 18:28:28 10° S
Tiangong 1 2.7 18:22:37 10° WSW 18:24:26 29° SW 18:24:26 29° SW
Cosmos 921 Rocket 2.9 18:22:45 10° SSW 18:27:00 88° WNW 18:27:30 69° NNE
BREEZE-M R/B 3.8 18:21:54 10° WSW 18:31:24 72° NNW 18:32:39 52° NE
Cosmos 2278 Rocket 3.4 18:28:02 10° SW 18:33:18 39° WNW 18:37:29 16° N
Meteor 2-16 Rocket 4.5 18:27:51 10° N 18:33:57 79° W 18:40:01 10° S
BREEZE-M DEB (TANK) 3.7 18:28:50 10° WNW 18:34:12 37° N 18:34:26 37° NNE
NOSS 2-1 (D) 3.8 18:34:19 10° SSW 18:37:14 52° SSW 18:37:14 52° SSW
NOSS 2-1 (C) 3.9 18:34:59 10° SSW 18:37:53 51° SSW 18:37:53 51° SSW
NOAA 12 4.2 18:36:12 10° S 18:41:29 75° WSW 18:46:46 10° NNW
METEOR-M 4.3 18:48:13 10° S 18:53:32 69° WSW 18:58:53 10° NNW
Cosmos 1743 4.4 18:50:18 10° NNW 18:53:49 33° W 18:57:18 10° SSW
Cosmos 1833 Rocket 3.2 18:51:19 10° NNW 18:56:50 56° WSW 19:02:09 11° S
Cosmos 2082 Rocket 3.1 18:52:03 10° NW 18:57:29 47° WSW 19:02:52 10° S
Meteor 1-15 Rocket 4.2 18:52:50 10° N 19:06:51 - S 18:58:23 79° N
ISS -0.1 18:57:32 10° NW 18:57:41 11° NW 18:57:41 11° NW
USA 234 4.2 19:06:45 32° N 19:08:10 35° NNW 19:13:57 10° W
Cosmos 1934 Rocket 4.3 19:02:19 10° NNW 19:08:26 64° W 19:14:37 10° S
Cosmos 2056 Rocket 4.3 19:03:20 10° SSW 19:06:59 45° SSW 19:06:59 45° SSW
NOSS 3-4 (A) 3.9 19:19:48 10° NW 19:26:48 72° WSW 19:27:09 71° SW
NOSS 3-4 (C) 3.9 19:19:54 10° NW 19:26:54 73° WSW 19:27:11 72° SW
CZ-3B DEB 4.3 20:10:38 10° WNW 20:16:19 44° NNW 20:16:19 44° NNW
